Temperature
7 6 6 5 4 3 2 1 -0 -2 -2 -1 -0 -1 -2 -2 -3 -4 -4 -4 -4 -5 -5 -6 -6 -6 -6 -5 -5 -5 -5 -4 -4 -4 -4 -3 -3 -3
6 6 5 4 3 2 1 0 -1 -2 -3 -3 -3 -3 -3 -3 -4 -5 -5 -5 -5 -5 -6 -6 -6 -6 -6 -6 -6 -5 -5 -5 -5 -5 -4 -4 -3 -3
5 4 4 3 2 1 0 -0 -1 -2 -3 -3 -4 -4 -4 -4 -4 -5 -5 -6 -6 -6 -6 -7 -7 -7 -7 -6 -6 -6 -6 -6 -5 -5 -5 -4 -4 -4
4 3 3 2 1 0 -0 -1 -2 -3 -4 -5 -5 -5 -6 -6 -6 -6 -6 -7 -7 -6 -6 -7 -7 -7 -7 -6 -6 -6 -6 -6 -6 -6 -6 -5 -5 -5
3 2 1 1 0 -0 -1 -2 -3 -4 -5 -6 -6 -7 -7 -7 -7 -7 -7 -7 -7 -7 -7 -6 -6 -6 -6 -6 -6 -6 -6 -6 -6 -6 -6 -6 -6 -5
2 1 1 0 -0 -1 -2 -3 -4 -5 -6 -7 -7 -7 -8 -7 -8 -8 -8 -7 -7 -6 -6 -6 -6 -6 -6 -6 -6 -6 -6 -6 -6 -6 -6 -6 -6 -6
1 0 0 -0 -1 -3 -4 -5 -6 -6 -7 -8 -8 -8 -8 -8 -8 -9 -9 -8 -7 -6 -6 -6 -6 -6 -5 -5 -6 -6 -5 -6 -7 -7 -7 -7 -6 -6
0 0 -0 -1 -2 -4 -5 -6 -7 -7 -8 -8 -8 -9 -9 -8 -9 -9 -9 -9 -9 -8 -8 -8 -7 -6 -6 -6 -6 -6 -6 -6 -7 -7 -7 -7 -7 -6
-0 -1 -1 -2 -4 -5 -6 -6 -7 -8 -8 -9 -9 -9 -9 -9 -9 -9 -9 -9 -9 -8 -8 -8 -7 -6 -6 -6 -6 -6 -6 -6 -6 -6 -7 -7 -7 -6
-1 -2 -3 -4 -4 -6 -7 -8 -8 -8 -8 -9 -9 -9 -9 -9 -9 -9 -9 -9 -9 -8 -8 -8 -7 -7 -7 -7 -6 -6 -6 -6 -6 -7 -7 -7 -7 -7
-2 -4 -4 -5 -5 -7 -8 -9 -9 -8 -8 -9 -9 -9 -8 -8 -9 -9 -9 -9 -10 -8 -8 -9 -7 -8 -7 -7 -6 -6 -6 -6 -6 -6 -6 -7 -7 -7
-3 -4 -5 -6 -8 -9 -9 -9 -9 -9 -9 -8 -8 -7 -7 -7 -7 -8 -8 -9 -10 -10 -8 -9 -9 -10 -10 -8 -7 -6 -6 -6 -6 -6 -6 -6 -6 -7
-5 -6 -6 -7 -9 -9 -9 -9 -9 -9 -9 -8 -8 -7 -7 -7 -7 -7 -8 -8 -9 -9 -8 -9 -9 -10 -11 -10 -8 -7 -7 -6 -6 -6 -6 -6 -6 -7
-7 -8 -8 -9 -9 -9 -9 -9 -9 -9 -9 -8 -8 -7 -7 -7 -7 -7 -7 -8 -8 -8 -7 -8 -9 -9 -10 -11 -10 -8 -7 -7 -6 -6 -6 -6 -6 -6
-9 -9 -10 -10 -9 -9 -8 -9 -9 -9 -8 -8 -8 -8 -7 -7 -7 -7 -7 -7 -7 -7 -7 -7 -8 -9 -10 -10 -10 -9 -8 -7 -6 -6 -6 -7 -6 -6
-9 -9 -10 -9 -9 -9 -9 -9 -9 -9 -9 -9 -8 -8 -8 -8 -7 -8 -8 -7 -7 -6 -6 -7 -8 -8 -9 -9 -10 -9 -7 -8 -7 -6 -7 -7 -6 -6
-10 -10 -9 -9 -9 -8 -8 -8 -8 -8 -9 -8 -8 -8 -8 -8 -8 -8 -8 -8 -8 -8 -7 -6 -7 -7 -8 -9 -9 -8 -7 -7 -7 -7 -8 -8 -7 -7
-10 -9 -9 -9 -9 -9 -9 -8 -8 -8 -8 -8 -8 -8 -8 -8 -8 -8 -8 -8 -8 -8 -7 -7 -7 -8 -8 -8 -8 -8 -8 -8 -7 -7 -8 -9 -8 -7
-10 -9 -9 -9 -9 -9 -9 -9 -8 -8 -8 -8 -8 -8 -8 -8 -8 -8 -8 -8 -8 -8 -8 -8 -8 -9 -10 -9 -8 -8 -8 -8 -8 -8 -8 -8 -8 -7
-10 -10 -9 -9 -9 -9 -9 -9 -8 -8 -8 -8 -8 -8 -8 -8 -8 -8 -8 -8 -8 -8 -8 -8 -8 -9 -9 -9 -9 -7 -6 -8 -8 -8 -8 -8 -7 -7
-10 -9 -9 -9 -9 -9 -9 -8 -8 -8 -8 -8 -8 -8 -8 -8 -8 -8 -8 -8 -8 -9 -9 -8 -8 -8 -8 -8 -8 -8 -6 -6 -7 -8 -8 -8 -7 -7
-10 -9 -9 -9 -9 -9 -8 -8 -8 -8 -8 -8 -8 -7 -7 -8 -8 -8 -8 -8 -8 -8 -8 -8 -8 -8 -8 -8 -8 -8 -7 -6 -6 -6 -6 -6 -7 -7
-10 -9 -9 -9 -9 -9 -8 -8 -8 -8 -8 -8 -7 -7 -7 -7 -7 -7 -8 -8 -8 -8 -8 -8 -8 -8 -8 -8 -8 -8 -8 -7 -7 -6 -5 -5 -5 -5
Wind_Speed
5 5 3 3 3 3 3 4 3 3 3 4 3 3 10 13 15 15 14 23 26 25 25 25 26 26 27 27 27 27 27 27 28 28 29 30 30 31
4 5 3 3 3 3 3 4 4 5 4 4 4 5 8 11 17 17 19 24 23 24 25 25 26 27 27 27 27 27 28 28 28 29 30 30 30 31
4 4 4 4 3 3 3 3 4 4 6 5 4 4 5 8 13 17 18 18 18 23 25 27 27 27 27 28 28 28 28 28 29 29 29 30 30 30
3 3 3 3 4 4 4 4 4 5 5 7 4 4 6 8 8 9 15 17 17 23 26 26 27 27 28 28 27 27 28 28 28 29 29 30 30 30
3 1 2 3 4 4 5 5 5 5 5 6 6 4 5 7 8 10 10 11 17 20 24 25 26 27 27 27 27 28 28 28 28 28 29 29 29 30
3 1 2 4 5 5 5 6 6 5 5 5 6 6 6 7 7 8 11 7 10 14 20 22 24 25 26 27 28 28 29 29 28 28 29 29 29 29
3 3 3 4 6 5 5 5 5 4 5 5 6 7 8 7 8 7 12 11 10 10 10 9 10 11 16 23 25 27 28 29 29 29 30 30 29 29
3 4 5 5 7 8 10 11 11 7 5 5 7 10 11 10 9 11 12 14 10 4 6 11 9 12 10 12 24 28 29 30 30 30 30 29 28 28
3 3 3 5 7 5 9 12 11 14 15 11 11 11 12 11 11 12 12 13 15 10 11 16 10 13 11 18 27 30 31 31 30 29 28 27 26 26
2 2 3 4 7 8 6 5 5 7 12 10 10 12 12 11 11 12 13 12 12 10 9 13 13 13 13 9 26 30 30 28 27 26 26 26 27 27
2 3 5 5 12 14 8 7 8 9 15 19 20 19 22 23 18 10 8 11 15 13 7 6 8 10 11 12 16 24 24 25 26 28 28 28 27 26
3 4 8 10 13 14 8 8 9 9 9 10 11 14 14 16 19 9 7 10 12 9 4 4 6 8 8 6 8 9 14 23 28 28 28 28 27 17
3 4 5 13 15 16 14 7 11 12 6 7 9 10 9 8 7 6 6 9 12 11 9 6 8 7 9 9 7 10 12 13 13 17 23 26 26 20
4 4 7 15 16 16 12 13 17 14 6 8 9 10 9 10 10 10 10 10 13 16 16 13 11 12 13 16 13 9 9 11 12 14 12 20 21 23
5 11 14 15 14 9 13 15 12 7 7 8 9 10 8 9 10 10 11 11 13 15 17 14 14 14 14 15 14 15 15 12 13 12 10 10 11 11
7 9 12 11 10 11 11 9 6 7 8 8 10 11 11 9 10 9 11 12 12 13 10 12 13 14 14 15 15 17 15 11 10 12 13 14 13 13
5 2 3 5 5 6 6 6 6 7 7 8 10 11 12 12 12 9 9 11 11 14 16 12 9 11 14 15 16 17 16 15 14 13 13 15 14 13
6 4 5 5 6 8 8 9 8 8 8 9 10 10 11 12 12 11 10 11 13 14 14 14 13 14 11 11 18 18 16 15 14 13 14 16 17 12
4 4 5 5 6 7 7 8 9 8 8 9 9 10 10 11 11 12 12 12 12 13 14 13 13 13 16 18 9 14 14 15 15 15 14 15 18 15
4 5 5 6 6 7 7 8 9 9 9 9 9 10 10 10 11 12 12 13 14 15 15 13 11 13 14 17 17 16 15 15 15 16 15 14 16 21
5 5 6 6 7 7 7 8 9 9 10 10 10 10 10 10 11 12 13 18 16 14 15 15 15 21 16 12 13 14 13 15 18 17 17 16 16 15
6 6 7 6 7 7 8 8 9 9 10 9 10 10 10 10 12 14 14 14 14 14 16 15 14 14 12 14 16 17 19 18 19 23 22 20 14 10
6 7 7 7 7 7 7 8 10 10 9 10 10 11 11 12 12 13 14 14 14 15 15 15 14 12 13 13 15 16 19 19 16 15 15 18 21 24
Wind_Direction
153 153 150 155 149 154 156 162 187 261 278 270 287 295 331 325 317 318 318 313 307 305 304 302 300 299 298 296 293 293 293 292 290 288 285 282 279 277
155 155 160 165 164 166 172 180 183 203 246 250 251 278 301 308 311 315 305 307 306 303 300 300 299 297 296 295 295 295 293 291 289 287 285 283 281 279
155 171 192 184 187 197 199 203 210 204 248 262 248 269 280 286 300 299 299 295 293 299 300 299 298 297 297 296 295 293 291 290 289 288 287 285 284 281
156 170 207 206 213 215 215 225 230 224 234 272 271 270 271 280 283 287 299 297 293 297 298 298 298 297 296 295 294 294 294 294 292 290 288 285 283 281
113 165 236 226 236 236 234 237 241 247 239 265 283 272 272 281 287 286 285 283 288 294 297 298 296 296 296 296 297 297 296 294 291 289 285 282 280 277
71 44 277 241 240 243 242 243 246 256 263 269 282 287 282 281 281 292 299 282 285 292 291 291 292 295 295 295 295 294 293 291 288 285 282 280 278 276
33 349 303 277 267 265 258 245 241 250 265 273 287 297 298 301 299 296 301 301 289 279 276 277 282 280 284 287 290 289 287 286 285 285 284 282 280 278
359 335 314 301 302 313 307 301 296 290 292 285 290 296 297 294 293 296 300 303 300 267 282 292 284 283 279 274 283 286 287 287 288 287 285 282 279 276
13 358 353 342 347 311 301 302 301 301 300 298 294 289 290 290 289 291 291 292 295 297 298 293 286 284 280 282 286 287 288 288 288 287 284 282 279 278
37 17 323 314 315 304 281 280 277 282 286 285 272 273 276 277 275 288 294 295 289 284 277 284 288 284 284 276 285 285 286 286 286 286 286 285 283 280
313 319 329 317 313 312 310 298 288 282 292 293 292 292 295 299 301 299 294 298 298 295 276 271 283 291 287 277 275 281 284 287 288 287 286 284 281 279
310 316 327 321 312 311 305 292 292 287 284 290 295 296 293 292 297 288 277 289 295 296 255 255 285 305 297 257 250 266 278 283 284 284 284 283 282 280
318 311 304 315 313 313 314 302 296 305 308 308 304 299 296 292 289 277 263 269 283 282 280 285 283 278 277 286 274 270 274 276 279 280 282 281 279 276
297 287 291 310 316 321 320 310 312 322 322 309 303 301 301 301 298 293 283 271 265 270 276 277 277 281 283 286 289 283 274 275 275 277 273 277 277 275
289 303 309 317 325 326 315 316 324 321 307 304 303 300 294 289 293 295 292 285 278 274 273 266 266 273 274 278 282 287 291 287 275 269 267 262 263 265
293 300 318 328 328 320 317 316 309 299 302 301 301 300 301 298 297 297 300 305 302 296 279 259 255 262 272 273 277 282 282 277 274 271 272 273 268 260
313 352 347 327 322 316 312 310 308 308 306 301 301 302 302 302 301 302 296 300 296 298 303 302 274 259 260 268 276 276 277 276 273 272 274 277 271 260
346 334 319 316 314 317 317 314 311 305 302 303 301 299 300 301 302 301 298 298 296 296 296 299 303 302 293 264 243 260 270 274 277 274 272 277 278 266
335 308 302 302 303 302 301 302 302 301 300 299 297 297 298 299 300 301 303 301 298 296 295 295 297 299 302 305 274 235 257 277 282 281 275 272 277 278
306 296 296 298 299 299 301 301 302 304 303 301 298 296 296 298 300 300 299 298 300 300 301 299 295 296 296 298 299 293 270 272 283 286 284 279 276 277
308 300 295 294 294 295 296 296 296 297 297 298 298 297 298 299 298 297 298 299 301 300 301 302 297 300 297 294 293 294 295 285 282 285 288 288 287 284
304 302 299 293 293 293 294 295 297 297 298 297 297 297 297 296 295 296 297 299 300 298 298 300 300 304 303 303 301 301 303 304 299 293 285 277 280 284
301 302 299 297 292 289 290 291 293 294 293 293 295 295 297 297 295 294 295 297 298 301 307 310 312 310 308 305 304 304 305 308 310 310 302 292 284 278
Height
1499 1498 1497 1496 1495 1494 1493 1491 1490 1485 1480 1479 1479 1477 1474 1470 1467 1463 1459 1456 1452 1449 1446 1443 1440 1438 1435 1433 1431 1429 1427 1425 1423 1421 1420 1419 1418 1417
1494 1494 1493 1492 1491 1490 1488 1486 1484 1481 1476 1473 1472 1471 1467 1463 1460 1456 1452 1448 1444 1441 1438 1435 1432 1430 1427 1425 1422 1420 1418 1416 1414 1412 1410 1409 1408 1407
1490 1489 1488 1487 1486 1485 1483 1481 1479 1476 1470 1466 1465 1463 1459 1456 1452 1448 1444 1440 1437 1433 1430 1427 1424 1421 1418 1416 1413 1410 1408 1406 1404 1402 1400 1399 1397 1396
1485 1485 1484 1482 1481 1480 1477 1475 1473 1470 1465 1460 1457 1455 1452 1449 1444 1441 1437 1433 1429 1425 1422 1418 1415 1412 1409 1406 1404 1401 1399 1396 1394 1391 1389 1388 1387 1386
1481 1480 1479 1477 1476 1474 1471 1469 1466 1463 1459 1455 1450 1448 1445 1442 1437 1433 1429 1425 1421 1417 1413 1410 1406 1403 1401 1398 1395 1392 1389 1386 1383 1380 1378 1377 1376 1375
1476 1475 1474 1472 1470 1468 1465 1463 1460 1457 1454 1450 1445 1441 1438 1435 1431 1425 1419 1416 1412 1409 1405 1402 1399 1396 1393 1390 1386 1383 1379 1376 1373 1370 1368 1367 1366 1365
1471 1470 1469 1467 1464 1462 1459 1457 1454 1451 1448 1444 1440 1435 1431 1428 1424 1419 1413 1408 1403 1401 1396 1393 1390 1386 1383 1381 1377 1373 1369 1366 1363 1361 1359 1357 1355 1354
1467 1465 1463 1461 1458 1456 1454 1452 1450 1447 1443 1439 1435 1431 1426 1423 1418 1414 1409 1402 1395 1394 1389 1384 1382 1377 1374 1371 1367 1363 1360 1357 1353 1351 1348 1346 1344 1343
1462 1459 1457 1454 1452 1449 1447 1445 1443 1441 1438 1435 1430 1425 1421 1417 1413 1408 1403 1398 1392 1388 1383 1374 1372 1368 1365 1361 1358 1354 1351 1347 1343 1340 1337 1335 1334 1332
1456 1453 1451 1448 1446 1444 1441 1439 1436 1434 1432 1428 1424 1419 1416 1412 1408 1404 1398 1391 1384 1381 1378 1368 1362 1359 1354 1351 1348 1345 1341 1338 1334 1330 1327 1325 1322 1321
1451 1448 1445 1442 1441 1438 1437 1434 1430 1428 1425 1422 1418 1415 1411 1407 1403 1398 1392 1385 1376 1371 1370 1363 1355 1349 1342 1338 1337 1335 1332 1328 1324 1320 1316 1313 1311 1310
1446 1444 1441 1438 1436 1435 1432 1429 1425 1421 1418 1414 1411 1408 1404 1401 1397 1393 1387 1380 1372 1364 1360 1357 1349 1344 1331 1324 1324 1323 1320 1316 1313 1309 1305 1302 1300 1298
1441 1439 1437 1434 1432 1430 1427 1423 1419 1417 1412 1408 1404 1400 1397 1394 1390 1387 1382 1376 1368 1360 1356 1352 1343 1338 1332 1319 1313 1313 1310 1305 1301 1296 1293 1291 1289 1287
1437 1435 1432 1430 1428 1425 1421 1418 1415 1411 1407 1403 1399 1395 1391 1387 1383 1379 1375 1370 1364 1356 1350 1346 1338 1332 1325 1316 1307 1301 1299 1295 1290 1285 1282 1280 1279 1277
1433 1430 1428 1426 1422 1419 1416 1413 1410 1406 1403 1398 1394 1390 1386 1381 1377 1372 1366 1361 1355 1350 1344 1338 1332 1325 1319 1311 1301 1294 1288 1283 1281 1276 1273 1269 1266 1264
1429 1426 1424 1421 1418 1415 1412 1409 1406 1403 1399 1394 1390 1385 1380 1376 1371 1365 1359 1352 1344 1338 1336 1331 1324 1318 1310 1303 1296 1287 1281 1275 1270 1267 1262 1257 1254 1251
1426 1422 1419 1416 1413 1411 1408 1405 1402 1399 1395 1391 1386 1380 1375 1370 1365 1360 1353 1346 1339 1330 1324 1321 1316 1310 1303 1296 1288 1280 1273 1267 1261 1257 1252 1245 1240 1238
1422 1418 1416 1413 1410 1407 1404 1401 1398 1395 1391 1386 1381 1377 1371 1365 1359 1353 1347 1340 1333 1325 1319 1312 1306 1298 1291 1285 1281 1272 1265 1258 1252 1247 1242 1236 1227 1224
1418 1415 1412 1410 1407 1404 1401 1397 1394 1390 1386 1382 1377 1372 1367 1361 1354 1347 1341 1335 1327 1320 1313 1307 1300 1294 1286 1275 1268 1265 1258 1250 1243 1237 1232 1226 1218 1211
1415 1412 1409 1407 1404 1401 1397 1394 1390 1386 1382 1378 1374 1369 1363 1356 1350 1343 1337 1330 1323 1315 1307 1301 1296 1290 1283 1273 1261 1253 1251 1244 1236 1228 1221 1215 1207 1201
1412 1410 1407 1404 1401 1398 1395 1391 1387 1383 1379 1374 1370 1365 1359 1353 1346 1339 1332 1326 1319 1312 1304 1296 1290 1285 1277 1268 1258 1247 1241 1236 1229 1221 1212 1205 1197 1191
1409 1407 1404 1401 1398 1395 1392 1388 1384 1380 1376 1371 1367 1361 1356 1349 1342 1336 1329 1322 1315 1308 1300 1292 1284 1277 1270 1263 1253 1242 1232 1225 1219 1212 1205 1198 1192 1183
1407 1404 1402 1399 1396 1392 1389 1385 1381 1377 1373 1368 1363 1358 1352 1346 1339 1332 1326 1319 1312 1304 1297 1288 1279 1272 1265 1257 1248 1238 1227 1218 1209 1201 1195 1190 1184 1177